Weather History for LGKZ - October, 2012

Change the Weather History Date:

Tuesday, October 30, 2012

  Actual Average Record
Temperature  
Mean Temperature 50 °F -  
Max Temperature 59 °F - - ()
Min Temperature 41 °F - - ()
Degree Days  
Heating Degree Days 14    
Moisture  
Dew Point 37 °F    
Average Humidity 66    
Maximum Humidity 93    
Minimum Humidity 41    
Precipitation  
Precipitation 0.00 in - - ()
Sea Level Pressure  
Sea Level Pressure 29.84 in    
Wind  
Wind Speed 5 mph ()    
Max Wind Speed 12 mph    
Max Gust Speed -    
Visibility 6.2 miles    
Events Rain    
T = Trace of Precipitation, MM = Missing Value Source: Averaged Metar Reports

Daily Weather History Graph

Daily Weather History Graph

Search for Another Location

Airport or City:

Trip Planner

Search our weather history database for the weather conditions in past years. The results will help you decide how hot, cold, wet, or windy it might be!

Date:

Astronomy

Oct. 30, 2012 Rise Set
Actual Time 7:00 AM EET 5:31 PM EET
Civil Twilight 6:32 AM EET 5:59 PM EET
Nautical Twilight 5:59 AM EET 6:31 PM EET
Astronomical Twilight 5:28 AM EET 7:03 PM EET
Moon 5:49 PM EET (10/30) 7:29 AM EET (10/30)
Length of Visible Light 11h 27m
Length of Day
10h 31m
Full, 100% of the Moon is Illuminated
Oct 30
Full
Nov 7
Last Quarter
Nov 14
New
Nov 20
First Quarter
Nov 28
Full

Hourly Weather History & Observations

Time (EET) Temp. Windchill Dew Point Humidity Pressure Visibility Wind Dir Wind Speed Gust Speed Precip Events Conditions
12:20 AM 50.0 °F - 39.2 °F 66% 29.74 in - Variable 3.5 mph - N/A   Unknown
12:50 AM 50.0 °F - 41.0 °F 71% 29.74 in - NNW 4.6 mph - N/A Rain Light Rain
1:20 AM 48.2 °F - 42.8 °F 82% 29.74 in - SSE 5.8 mph - N/A Rain Light Rain
1:50 AM 46.4 °F 43.5 °F 44.6 °F 93% 29.74 in - West 5.8 mph - N/A Rain Light Rain
2:20 AM 46.4 °F 45.2 °F 42.8 °F 87% 29.74 in - Variable 3.5 mph - N/A   Unknown
2:50 AM 46.4 °F 43.5 °F 42.8 °F 87% 29.74 in - WSW 5.8 mph - N/A   Unknown
3:20 AM 46.4 °F 44.3 °F 42.8 °F 87% 29.74 in - West 4.6 mph - N/A Rain Light Rain
3:50 AM 46.4 °F 42.4 °F 41.0 °F 81% 29.74 in - WSW 8.1 mph - N/A Rain Light Rain
4:20 AM 44.6 °F 43.1 °F 39.2 °F 81% 29.77 in - Variable 3.5 mph - N/A   Unknown
4:50 AM 44.6 °F 42.2 °F 37.4 °F 76% 29.77 in - WSW 4.6 mph - N/A   Unknown
5:20 AM 46.4 °F 43.5 °F 37.4 °F 71% 29.77 in - North 5.8 mph - N/A   Unknown
5:50 AM 46.4 °F 43.5 °F 35.6 °F 66% 29.77 in - North 5.8 mph - N/A   Unknown
6:20 AM 44.6 °F - 35.6 °F 71% 29.77 in - Variable 1.2 mph - N/A   Unknown
6:50 AM 44.6 °F 42.2 °F 33.8 °F 66% 29.80 in 6.2 mi WSW 4.6 mph - N/A   Partly Cloudy
7:50 AM 46.4 °F 42.9 °F 33.8 °F 62% 29.83 in 6.2 mi SSW 6.9 mph - N/A   Partly Cloudy
8:50 AM 50.0 °F - 35.6 °F 58% 29.83 in 6.2 mi SW 8.1 mph - N/A   Partly Cloudy
9:50 AM 51.8 °F - 37.4 °F 58% 29.83 in 6.2 mi WSW 11.5 mph - N/A   Partly Cloudy
10:50 AM 53.6 °F - 37.4 °F 54% 29.86 in 6.2 mi SW 10.4 mph - N/A   Partly Cloudy
11:50 AM 55.4 °F - 37.4 °F 51% 29.86 in 6.2 mi West 6.9 mph - N/A   Partly Cloudy
12:50 PM 55.4 °F - 37.4 °F 51% 29.86 in 6.2 mi West 6.9 mph - N/A   Partly Cloudy
1:50 PM 57.2 °F - 37.4 °F 48% 29.86 in 6.2 mi West 5.8 mph - N/A   Partly Cloudy
2:50 PM 57.2 °F - 35.6 °F 44% 29.86 in 6.2 mi WNW 6.9 mph - N/A   Partly Cloudy
3:50 PM 59.0 °F - 35.6 °F 42% 29.86 in 6.2 mi Calm Calm - N/A   Partly Cloudy
4:50 PM 57.2 °F - 33.8 °F 41% 29.86 in 6.2 mi Calm Calm - N/A   Partly Cloudy
5:50 PM 50.0 °F - 37.4 °F 62% 29.89 in 6.2 mi Calm Calm - N/A   Partly Cloudy
6:50 PM 50.0 °F - 33.8 °F 54% 29.92 in 6.2 mi WNW 4.6 mph - N/A   Partly Cloudy
7:50 PM 48.2 °F - 33.8 °F 58% 29.95 in 6.2 mi WNW 4.6 mph - N/A   Partly Cloudy
8:20 PM 46.4 °F 45.2 °F 33.8 °F 62% 29.95 in - Variable 3.5 mph - N/A   Unknown
8:50 PM 46.4 °F 43.5 °F 33.8 °F 62% 29.95 in - NNW 5.8 mph - N/A   Unknown
9:20 PM 46.4 °F 45.2 °F 32.0 °F 57% 29.95 in - Variable 3.5 mph - N/A   Unknown
9:50 PM 42.8 °F 38.6 °F 33.8 °F 70% 29.95 in - North 6.9 mph - N/A   Unknown
10:20 PM 42.8 °F 40.1 °F 33.8 °F 70% 29.95 in - East 4.6 mph - N/A   Unknown
10:50 PM 42.8 °F 39.3 °F 33.8 °F 70% 29.95 in - NNE 5.8 mph - N/A   Unknown
11:20 PM 42.8 °F 41.1 °F 32.0 °F 66% 29.95 in - Variable 3.5 mph - N/A   Unknown
11:50 PM 41.0 °F 38.0 °F 33.8 °F 76% 29.98 in - NNW 4.6 mph - N/A   Unknown